全球星 M079星 (GLOBALSTAR M079)

导读

GLOBALSTAR M079是隶属于美国全球星第二代低轨移动通信卫星系统的卫星,于2010年10月19日发射。全球星系统由美国全球星公司运营,卫星运行在高度约1414千米、倾角52°的近地轨道。 该卫星旨在为全球范围,尤其是南北纬70度以内偏远地区、海洋等地面基站覆盖盲区提供语音通信、数据传输、短消息等移动通信服务,属于全球星星座的空间段组成部分,补充并增强了全球星系统的网络服务容量与覆盖能力。

Basic Information
目录编号:
37188
目录名称:
GLOBALSTAR M079
国际标识:
2010-054A
轨道中心:
EARTH
卫星名称:
全球星 M079星
卫星全名:
全球星 M079星 (GLOBALSTAR M079)
卫星状态:
在轨 (已飞行5807 天)
发射日期:
2010-10-19 UTC
国别 :
(GLOB)
星等 :
--
This satellite is enrolled in the Space Conjunction Data Service (SCDS) and the current flight risk assessment level is: No High Risk
Orbit Information
数据来源 国际轨道数据 AOE轨道数据
星历时间 2026-09-11T23:06:21+0800
16小时前
查看轨道信息
2026-09-11T01:00:00+0800
1天前
查看轨道信息
半长轴 7791.738km 7791.739km
偏心率 0.0000372 0.0000441
轨道倾角 52.003° 52.001°
近地点辐角 98.128° 120.229°
升交点赤经 205.527° 208.328°
平近点角 72.818° 183.172°
近地点 1413.311km 1413.258km
远地点 1413.891km 1413.946km
周期 114.080分钟 114.080分钟
每日圈数 12.622673 12.62267
Detailed Information
固有亮度:
5
最大亮度:
7.2
平衡模式:
三轴稳定
覆盖范围:
全球
运营商:
全球星公司
运营商所在国:
美国
使用方式:
暂无
Satellite Introduction
全球星星座由48颗卫星加8颗备份星组成。这些卫星分布在8个倾角为52度的圆形轨道平面上,每个轨道平面6颗卫星,另有1 颗备用星。轨道高度约为1414km,传输时延和处理时延小于300ms,整个系统的覆盖区为南北纬70度以内的地区。该卫星已退役。
2D Orbit Map
3D Orbit Map
Orbit Altitude Analysis Chart
Orbit Inclination Analysis Chart
Orbit Comprehensive Analysis Chart
View Comprehensive Chart
Conjunction Data List
Event ID Objects TCA Miss Dist (km) Collision Risk Probability Collision Risk Index (CRI) Action
CDM_260914-131802-472803-718822
2026-09-14T
13:18:08+0000
1.689 km
极远距离
2.056856E-6 低风险 0.41
Miss Distance Evolution Trend with All Objects
Collision Probability Evolution Trend with All Objects